Location: Newark
(13.6797°N, 8.5297°E)
Time: 13:55:07
(UTC+00:00)

Tiros 1 despin weight - All Passes

Search period start: 28 January 2020 00:00
Search period end: 07 February 2020 00:00
Orbit: 594 x 642 km, 48.2° (Epoch: 27 January)

Date Brightness Start Highest point End Pass type
(mag) Time Alt. Az. Time Alt. Az. Time Alt. Az.
28 Jan - 07:00:53 10° SSW 07:05:13 62° SE 07:09:36 10° NE daylight
28 Jan - 08:45:17 10° WNW 08:46:54 12° NW 08:48:32 10° NNW daylight
28 Jan - 17:21:30 10° NW 17:26:10 83° NE 17:30:51 10° SE daylight
29 Jan - 05:38:30 10° SSE 05:40:29 13° SE 05:42:26 10° E daylight
29 Jan - 07:17:29 10° WSW 07:21:43 47° NW 07:26:00 10° NNE daylight
29 Jan - 15:57:40 10° N 16:01:06 20° NE 16:04:32 10° E daylight
29 Jan - 17:38:19 10° WNW 17:42:38 37° SW 17:46:56 10° SSE visible
30 Jan - 05:52:54 10° SSW 05:56:52 34° SE 06:00:52 10° ENE daylight
30 Jan - 07:35:11 10° W 07:38:21 19° NW 07:41:32 10° N daylight
30 Jan - 16:13:14 10° NNW 16:17:44 47° NE 16:22:14 10° ESE daylight
30 Jan - 17:56:29 10° W 17:59:02 15° SW 18:01:36 10° SSW visible
31 Jan - 06:08:55 10° SW 06:13:19 85° NW 06:17:44 10° NE daylight
31 Jan - 14:50:34 10° NNE 14:52:31 12° NE 14:54:28 10° ENE daylight
31 Jan - 16:29:37 10° NW 16:34:14 65° SW 16:38:52 10° SSE daylight
01 Feb - 04:45:23 10° S 04:48:32 19° SE 04:51:42 10° E visible
01 Feb - 06:25:57 10° WSW 06:29:52 31° NW 06:33:48 10° NNE daylight
01 Feb - 15:05:15 10° NNW 15:09:15 28° NE 15:13:16 10° ESE daylight
01 Feb - 16:46:51 10° WNW 16:50:39 25° SW 16:54:29 10° S daylight
02 Feb - 05:00:41 10° SSW 05:04:57 52° SE 05:09:14 10° NE visible
02 Feb - 06:44:25 10° WNW 06:46:34 13° NW 06:48:43 10° NNW daylight
02 Feb - 15:21:11 10° NW 15:25:49 72° NE 15:30:28 10° SE daylight
03 Feb - 03:39:09 10° SE 03:40:12 11° SE 03:41:15 10° ESE visible
03 Feb - 05:17:08 10° SW 05:21:26 55° NW 05:25:45 10° NNE visible
03 Feb - 13:57:37 10° N 14:00:43 17° NE 14:03:49 10° E daylight
03 Feb - 15:37:53 10° WNW 15:42:16 43° SW 15:46:43 10° SSE daylight
04 Feb - 03:52:48 10° S 03:56:37 29° SE 04:00:25 10° ENE visible
04 Feb - 05:34:38 10° W 05:38:02 22° NW 05:41:27 10° N daylight
04 Feb - 14:13:01 10° NNW 14:17:22 41° NE 14:21:46 10° ESE daylight
04 Feb - 15:55:43 10° W 15:58:42 17° SW 16:01:43 10° SSW daylight
05 Feb - 04:08:39 10° SW 04:13:03 82° SE 04:17:27 10° NE visible
05 Feb - 12:51:08 10° NNE 12:52:07 11° NE 12:53:07 10° NE daylight
05 Feb - 14:29:16 10° NW 14:33:53 77° SW 14:38:32 10° SE daylight
06 Feb - 02:45:27 10° SSE 02:48:16 17° SE 02:51:05 10° E visible
06 Feb - 04:25:31 10° WSW 04:29:34 36° NW 04:33:38 10° NNE visible
06 Feb - 13:05:07 10° N 13:08:52 24° NE 13:12:40 10° E daylight
06 Feb - 14:46:21 10° WNW 14:50:19 29° SW 14:54:20 10° S daylight
